sat.trackr.live / text

‹ back to catalog

IRIDIUM 109

NORAD 41919 · 2017-003C

PAYLOAD ACTIVE UNKNOWN

§ Identity

Operator
Country
US
Launch date
2017-01-14
Launch site
AFWTR
Launch vehicle
Mass (kg)
RCS (m²)
2.80

Purposes: comms

External: N2YO · Heavens-Above · Gunter

§ Orbital elements

Epoch: 2026-05-25T03:14:50.286336Z

Period
100.40 min
Inclination
86.3951°
Eccentricity
0.0002335
Mean motion
14.34217777 rev/d
Perigee alt
776.0 km
Apogee alt
779.3 km
Semi-major
7,155.8 km
B*
8.4429e-6
RAAN
98.1516°
Arg perigee
85.8783°
Mean anomaly
274.2680°
Rev number
48,989

§ Raw data

IRIDIUM 1091 41919U 17003C   26145.13530424  .00000043  00000+0  84429-5 0  99932 41919  86.3951  98.1516 0002335  85.8783 274.2680 14.34217777489890

JSON: /api/v1/satellites/41919 · /tle

For live sub-satellite position, see the globe view (requires WebGL).

§ Visibility from observer

Set your observer location to see the next 7 days of passes ≥ 10°. The values pass through the URL so the page stays shareable.

No JS? Fill the form by hand. The geolocation button needs JavaScript.